Regional Weather Roundup
Issued by NWS

Home | Current Version | Previous Version | Graphics & Text | Print | Product List | Glossary On
Versions: 1 2 3 4 5 6 7 8 9 10 11 12 13 14 15 16 17 18 19 20 21 22 23 24 25 26 27 28 29 30 31 32 33 34 35 36 37 38 39 40 41 42 43 44 45 46 47 48 49 50
000
ASUS45 KBOU 292307
RWRCO

WEATHER ROUNDUP FOR COLORADO
NATIONAL WEATHER SERVICE DENVER/BOULDER CO
500 PM MDT SAT AUG 29 2015

NOTE: "FAIR" INDICATES FEW OR NO CLOUDS BELOW 12000 FEET WITH NO
SIGNIFICANT WEATHER AND/OR OBSTRUCTIONS TO VISIBILITY.

COZ001>005-013-030-031-300000-
...NORTHWEST COLORADO...

CITY           SKY/WX    TMP DP  RH WIND       PRES   REMARKS
CRAIG          MOSUNNY   87  31  13 MISG      30.18F
HAYDEN         NOT AVBL
MEEKER         SUNNY     87  33  14 S12       30.20F
MOUNT WERNER   NOT AVBL
STEAMBOAT SPGS MOSUNNY   83  32  16 W8        30.24F
WALDEN         SUNNY     77  21  12 SW6       30.35F
$$

COZ006>008-011-300000-
...WEST CENTRAL VALLEYS...

CITY           SKY/WX    TMP DP  RH WIND       PRES   REMARKS
GRAND JUNCTION SUNNY     91  38  15 VRB3      30.09F
MONTROSE       SUNNY     88  36  15 N6        30.17F
EAGLE          MOSUNNY   84  39  20 W9G22     30.23F
RIFLE          SUNNY     86  38  18 NW6       30.14F
DELTA          SUNNY     93  33  11 CALM      30.12F
NUCLA          SUNNY     88  28  11 S3G16     30.23S
$$

COZ017>023-064>068-300000-
...SOUTHWEST COLORADO...

CITY           SKY/WX    TMP DP  RH WIND       PRES   REMARKS
DURANGO        MOSUNNY   83  38  20 NW12      30.26F
CORTEZ         SUNNY     88  38  17 S8        30.19F
PAGOSA SPRINGS MOSUNNY   79  33  18 NW8       30.35F
TELLURIDE      MOSUNNY   72  36  26 SW3       30.48F
WOLF CREEK PAS PTSUNNY   55  34  44 W13       30.71S
$$

COZ009-010-012-014-032>034-037-058>063-300000-
...CENTRAL COLORADO...

CITY           SKY/WX    TMP DP  RH WIND       PRES   REMARKS
ASPEN          MOSUNNY   80  40  23 NW9       30.31F
BUENA VISTA    MOSUNNY   78  35  21 S14       30.33F
COPPER MTN     MOSUNNY   61  32  33 W14       30.69S
BERTHOUD PASS  PTSUNNY   54  41  62 NE6       30.74F
COTTONWOOD PAS MOSUNNY   73  32  21 E8        30.49F
GUNNISON       MOSUNNY   79  36  21 N7        30.34F
KREMMLING      MOSUNNY   82  19   9 W12G17    30.29F
LEADVILLE      MOSUNNY   69  32  25 W7        30.48F
MONARCH PASS   MOSUNNY   63  34  34 SW12G17   30.78F
SALIDA         MOSUNNY   82  35  18 S5        30.37F
SUNLIGHT       MOSUNNY   70  41  35 CALM      30.61F
WILKERSON PASS MOSUNNY   66  34  30 SW7       30.64S
$$

COZ069>075-300000-
...SAN LUIS VALLEY/SANGRE DE CRISTO MOUNTAINS...

CITY           SKY/WX    TMP DP  RH WIND       PRES   REMARKS
ALAMOSA        SUNNY     80  34  19 S9        30.32F
LA VETA PASS   SUNNY     64  37  36 NE7       30.56S
SAGUACHE       MOSUNNY   79  39  24 S6        30.35F
$$

COZ035-036-038>040-300000-
...NORTHERN COLORADO FRONT RANGE...

CITY           SKY/WX    TMP DP  RH WIND       PRES   REMARKS
DENVER INTL AP MOSUNNY   90  37  15 S9        30.13F
DMNS CITY PARK   N/A     91  34  13 E7        30.11F
AURORA         MOSUNNY   88  43  20 S15       30.15F
FRONT RANGE AP MOSUNNY   90  39  17 SE15      30.15F
ERIE MUNI ARPT SUNNY     91  32  12 SE5       30.10F
BOULDER MUN AP SUNNY     90  37  15 E6        30.11F
CENTENNIAL     MOSUNNY   85  45  24 S14       30.17F
BROOMFIELD     MOSUNNY   90  36  14 SE5       30.16F
FORT COLLINS   SUNNY     91  43  18 SE8G17    30.07F
LONGMONT       SUNNY     93  37  14 S5        30.11F
$$

COZ041-046-047-076>085-087-088-300000-
...PIKES PEAK/PALMER DIVIDE AND SOUTHERN FOOTHILLS...

CITY           SKY/WX    TMP DP  RH WIND       PRES   REMARKS
COLO. SPRINGS  MOSUNNY   83  41  22 SE18G25   30.24F
A. F. ACADEMY  SUNNY     81  41  24 SE17G25   30.24F
ELLICOTT       SUNNY    N/A N/A N/A S13G21    30.24F
FALCON         SUNNY     79  42  27 MISG      30.30F
FORT CARSON    SUNNY     84  44  24 S14       30.20F
LIMON          SUNNY     82  42  24 S14       30.20F
MONUMENT HILL  SUNNY     77  41  27 SE18G26   30.29F
TRINIDAD       SUNNY     87  35  15 E5        30.21F
$$

COZ042>045-048>051-090-091-300000-
...NORTHEAST COLORADO...

CITY           SKY/WX    TMP DP  RH WIND       PRES   REMARKS
GREELEY ARPT   SUNNY     91  39  16 SE10      30.09F
AKRON          SUNNY     89  39  17 S12       30.12F
BURLINGTON     SUNNY     85  45  24 S12       30.14F
WRAY           MOSUNNY   94  37  13 S10G16    30.08F
STERLING       SUNNY     91  41  17 SW8       30.06F
HOLYOKE        SUNNY     90  45  20 S9        30.08F
FORT MORGAN    SUNNY     90  37  15 S8        30.10F
$$

COZ086-089-092>099-300000-
...SOUTHEAST COLORADO...

CITY           SKY/WX    TMP DP  RH WIND       PRES   REMARKS
PUEBLO         SUNNY     91  40  16 SE14      30.12F
LA JUNTA       SUNNY     90  37  15 E8G20     30.13F
LAMAR          SUNNY     89  44  20 SE9       30.09F HAZE
SPRINGFIELD    NOT AVBL
$$



USA.gov is the U.S. government's official web portal to all federal, state and local government web resources and services.